N750GK KVNY-KSFO

Flight info

Callsign N750GK
Flight time 0h 51m
Altitude 30000
Route WLKKR5 COREZ MAKRS SERFR SERFR4
Aircraft C750/M-VGDW/C

Departure

Time 2026-04-23 05:04
Airport Van Nuys Airport (KVNY)

Arrival

Time 2026-04-23 05:55
Airport San Francisco International Airport (KSFO)
Time Latitude Longitude Altitude Speed Heading
2026-04-23 04:59 34.21842 -118.49298 806 ft 0 kts 112°
2026-04-23 05:02 34.21841 -118.49297 805 ft 1 kts 110°
2026-04-23 05:02 34.21852 -118.49264 805 ft 5 kts 63°
2026-04-23 05:02 34.21872 -118.49208 805 ft 9 kts 73°
2026-04-23 05:03 34.21858 -118.49133 805 ft 11 kts 133°
2026-04-23 05:03 34.21763 -118.49112 802 ft 24 kts 175°
2026-04-23 05:03 34.21196 -118.49059 793 ft 135 kts 175°
2026-04-23 05:03 34.20158 -118.48956 1251 ft 158 kts 176°
2026-04-23 05:04 34.19037 -118.48851 1994 ft 165 kts 175°
2026-04-23 05:04 34.17888 -118.49004 2742 ft 170 kts 201°
2026-04-23 05:04 34.16907 -118.49796 3513 ft 172 kts 228°
2026-04-23 05:04 34.16365 -118.51066 4298 ft 172 kts 258°
2026-04-23 05:05 34.16357 -118.52495 5123 ft 172 kts 284°
2026-04-23 05:05 34.16898 -118.53764 5933 ft 172 kts 310°
2026-04-23 05:05 34.17867 -118.54619 6751 ft 176 kts 330°
2026-04-23 05:05 34.18972 -118.55348 7578 ft 187 kts 328°
2026-04-23 05:06 34.20156 -118.56159 8229 ft 210 kts 328°
2026-04-23 05:06 34.21509 -118.57069 8878 ft 234 kts 328°
2026-04-23 05:06 34.23008 -118.58071 9457 ft 259 kts 327°
2026-04-23 05:06 34.24626 -118.59151 10250 ft 269 kts 327°
2026-04-23 05:07 34.26323 -118.60288 10721 ft 291 kts 327°
2026-04-23 05:07 34.28217 -118.61440 10854 ft 322 kts 335°
2026-04-23 05:07 34.30448 -118.62234 11270 ft 337 kts 340°
2026-04-23 05:07 34.32671 -118.62983 12129 ft 335 kts 339°
2026-04-23 05:08 34.34912 -118.63815 12891 ft 338 kts 337°
2026-04-23 05:08 34.37169 -118.64698 13684 ft 342 kts 336°
2026-04-23 05:08 34.39394 -118.65753 14382 ft 345 kts 333°
2026-04-23 05:08 34.41620 -118.66883 15064 ft 347 kts 331°
2026-04-23 05:09 34.43783 -118.68182 15631 ft 348 kts 324°
2026-04-23 05:09 34.45873 -118.69706 16345 ft 351 kts 324°
2026-04-23 05:09 34.47996 -118.71188 17103 ft 354 kts 325°
2026-04-23 05:09 34.50137 -118.72674 17832 ft 356 kts 324°
2026-04-23 05:10 34.52283 -118.74201 18493 ft 360 kts 324°
2026-04-23 05:10 34.54453 -118.75745 19179 ft 363 kts 324°
2026-04-23 05:10 34.56650 -118.77292 19870 ft 367 kts 324°
2026-04-23 05:10 34.58864 -118.78853 20656 ft 370 kts 324°
2026-04-23 05:11 34.61071 -118.80417 21433 ft 372 kts 323°
2026-04-23 05:11 34.63320 -118.82005 22141 ft 375 kts 324°
2026-04-23 05:11 34.65577 -118.83602 22842 ft 378 kts 323°
2026-04-23 05:11 34.67843 -118.85235 23361 ft 380 kts 323°
2026-04-23 05:12 34.70130 -118.86866 23951 ft 383 kts 323°
2026-04-23 05:12 34.72445 -118.88497 24416 ft 386 kts 323°
2026-04-23 05:12 34.74783 -118.90139 24959 ft 390 kts 323°
2026-04-23 05:12 34.77132 -118.91809 25478 ft 393 kts 323°
2026-04-23 05:13 34.79500 -118.93507 25990 ft 397 kts 323°
2026-04-23 05:13 34.81889 -118.95213 26530 ft 401 kts 322°
2026-04-23 05:13 34.84311 -118.96941 27053 ft 404 kts 322°
2026-04-23 05:14 34.89212 -119.00448 28017 ft 412 kts 322°
2026-04-23 05:14 34.91698 -119.02225 28554 ft 416 kts 322°
2026-04-23 05:14 34.94207 -119.04012 29044 ft 421 kts 322°
2026-04-23 05:14 34.96709 -119.05807 29591 ft 424 kts 322°
2026-04-23 05:15 34.99254 -119.07636 30124 ft 427 kts 321°
2026-04-23 05:15 35.01856 -119.09509 30137 ft 441 kts 322°
2026-04-23 05:15 35.04542 -119.11438 30142 ft 454 kts 322°
2026-04-23 05:15 35.07306 -119.13416 30153 ft 466 kts 322°
2026-04-23 05:16 35.10129 -119.15442 30151 ft 476 kts 322°
2026-04-23 05:16 35.15919 -119.19606 30192 ft 486 kts 322°
2026-04-23 05:17 35.21744 -119.23800 30145 ft 486 kts 322°
2026-04-23 05:17 35.27574 -119.28009 30137 ft 486 kts 322°
2026-04-23 05:18 35.33402 -119.32221 30139 ft 485 kts 322°
2026-04-23 05:18 35.39160 -119.36392 30150 ft 483 kts 322°
2026-04-23 05:19 35.44883 -119.40669 30141 ft 477 kts 318°
2026-04-23 05:19 35.49845 -119.45919 30145 ft 466 kts 308°
2026-04-23 05:20 35.53781 -119.52106 30153 ft 453 kts 298°
2026-04-23 05:20 35.56615 -119.58939 30146 ft 447 kts 289°
2026-04-23 05:21 35.58337 -119.66240 30149 ft 444 kts 279°
2026-04-23 05:21 35.59440 -119.73702 30162 ft 444 kts 279°
2026-04-23 05:22 35.60546 -119.81116 30167 ft 444 kts 279°
2026-04-23 05:22 35.61639 -119.88592 30167 ft 444 kts 279°
2026-04-23 05:23 35.62737 -119.96061 30184 ft 443 kts 279°
2026-04-23 05:23 35.63823 -120.03522 30183 ft 443 kts 279°
2026-04-23 05:24 35.64909 -120.10989 30186 ft 443 kts 279°
2026-04-23 05:24 35.65989 -120.18468 30183 ft 443 kts 279°
2026-04-23 05:25 35.67065 -120.25948 30188 ft 444 kts 279°
2026-04-23 05:25 35.68326 -120.33388 30196 ft 446 kts 284°
2026-04-23 05:26 35.70610 -120.40498 30221 ft 449 kts 292°
2026-04-23 05:26 35.73267 -120.47436 30222 ft 448 kts 291°
2026-04-23 05:27 35.75897 -120.54333 30223 ft 448 kts 292°
2026-04-23 05:27 35.78553 -120.61288 30220 ft 448 kts 291°
2026-04-23 05:28 35.81196 -120.68251 30210 ft 448 kts 291°
2026-04-23 05:28 35.83844 -120.75226 30218 ft 448 kts 291°
2026-04-23 05:29 35.86480 -120.82190 30214 ft 448 kts 291°
2026-04-23 05:29 35.89113 -120.89156 30219 ft 448 kts 291°
2026-04-23 05:30 35.91724 -120.96085 30203 ft 448 kts 291°
2026-04-23 05:30 35.94345 -121.03057 30213 ft 448 kts 291°
2026-04-23 05:31 35.96964 -121.10030 30224 ft 448 kts 291°
2026-04-23 05:31 35.99135 -121.15829 30233 ft 448 kts 291°
2026-04-23 05:32 36.01747 -121.22816 30229 ft 448 kts 291°
2026-04-23 05:32 36.04553 -121.29703 30213 ft 451 kts 297°
2026-04-23 05:33 36.08351 -121.35946 30252 ft 459 kts 307°
2026-04-23 05:33 36.13106 -121.41234 30234 ft 468 kts 317°
2026-04-23 05:34 36.18619 -121.45635 30241 ft 471 kts 321°
2026-04-23 05:34 36.24130 -121.49975 30066 ft 458 kts 321°
2026-04-23 05:34 36.26738 -121.51987 29472 ft 425 kts 321°
2026-04-23 05:35 36.29181 -121.53885 28924 ft 408 kts 320°
2026-04-23 05:35 36.31561 -121.55781 28410 ft 405 kts 320°
2026-04-23 05:35 36.33935 -121.57660 27855 ft 404 kts 320°
2026-04-23 05:35 36.36303 -121.59514 27341 ft 400 kts 321°
2026-04-23 05:36 36.38656 -121.61341 26815 ft 397 kts 321°
2026-04-23 05:36 36.40955 -121.63152 26296 ft 395 kts 321°
2026-04-23 05:36 36.43262 -121.64980 25777 ft 392 kts 321°
2026-04-23 05:36 36.45556 -121.66786 25266 ft 381 kts 321°
2026-04-23 05:37 36.47741 -121.68492 24612 ft 365 kts 321°
2026-04-23 05:37 36.49859 -121.70165 24069 ft 356 kts 321°
2026-04-23 05:37 36.51940 -121.71816 23566 ft 353 kts 322°
2026-04-23 05:37 36.54008 -121.73453 23090 ft 351 kts 322°
2026-04-23 05:38 36.56069 -121.75079 22631 ft 351 kts 322°
2026-04-23 05:38 36.58122 -121.76703 22162 ft 349 kts 322°
2026-04-23 05:38 36.60172 -121.78328 21708 ft 349 kts 322°
2026-04-23 05:38 36.62209 -121.79942 21233 ft 346 kts 323°
2026-04-23 05:39 36.64240 -121.81550 20789 ft 345 kts 323°
2026-04-23 05:39 36.66238 -121.83134 20338 ft 343 kts 323°
2026-04-23 05:39 36.68245 -121.84728 19885 ft 342 kts 323°
2026-04-23 05:39 36.70246 -121.86316 19440 ft 340 kts 324°
2026-04-23 05:40 36.72234 -121.87896 19002 ft 338 kts 324°
2026-04-23 05:40 36.74302 -121.89296 18535 ft 341 kts 334°
2026-04-23 05:40 36.76598 -121.90114 18070 ft 342 kts 343°
2026-04-23 05:40 36.78928 -121.90742 17614 ft 341 kts 343°
2026-04-23 05:41 36.81237 -121.91390 17162 ft 339 kts 343°
2026-04-23 05:41 36.83535 -121.92042 16715 ft 337 kts 343°
2026-04-23 05:41 36.85793 -121.92672 16265 ft 336 kts 344°
2026-04-23 05:41 36.88068 -121.93303 15822 ft 334 kts 344°
2026-04-23 05:42 36.90334 -121.93938 15382 ft 332 kts 344°
2026-04-23 05:42 36.92587 -121.94569 14937 ft 331 kts 345°
2026-04-23 05:42 36.94831 -121.95200 14501 ft 329 kts 345°
2026-04-23 05:42 36.97010 -121.96022 14069 ft 326 kts 340°
2026-04-23 05:43 36.99172 -121.96874 13602 ft 324 kts 341°
2026-04-23 05:43 37.01323 -121.97698 13180 ft 323 kts 342°
2026-04-23 05:43 37.03466 -121.98527 12755 ft 322 kts 341°
2026-04-23 05:43 37.05594 -121.99362 12331 ft 320 kts 341°
2026-04-23 05:44 37.07714 -122.00193 11905 ft 319 kts 342°
2026-04-23 05:44 37.09827 -122.01017 11482 ft 317 kts 342°
2026-04-23 05:44 37.11930 -122.01837 11066 ft 316 kts 342°
2026-04-23 05:44 37.14023 -122.02656 10649 ft 313 kts 342°
2026-04-23 05:45 37.16045 -122.03448 10247 ft 295 kts 343°
2026-04-23 05:45 37.17957 -122.04196 9842 ft 283 kts 343°
2026-04-23 05:45 37.19790 -122.04914 9472 ft 278 kts 343°
2026-04-23 05:45 37.21626 -122.05633 9107 ft 276 kts 343°
2026-04-23 05:46 37.23451 -122.06349 8745 ft 274 kts 343°
2026-04-23 05:46 37.25268 -122.07061 8384 ft 272 kts 343°
2026-04-23 05:46 37.27048 -122.07760 8036 ft 262 kts 343°
2026-04-23 05:46 37.28781 -122.08441 7579 ft 258 kts 343°
2026-04-23 05:47 37.30476 -122.09109 7256 ft 254 kts 343°
2026-04-23 05:47 37.32165 -122.09774 6956 ft 254 kts 343°
2026-04-23 05:47 37.33770 -122.10408 6639 ft 230 kts 343°
2026-04-23 05:47 37.35254 -122.10993 6353 ft 220 kts 343°
2026-04-23 05:48 37.36708 -122.11566 6090 ft 218 kts 343°
2026-04-23 05:48 37.38162 -122.12077 5829 ft 217 kts 348°
2026-04-23 05:48 37.39616 -122.12567 5580 ft 216 kts 345°
2026-04-23 05:48 37.41062 -122.13097 5306 ft 215 kts 345°
2026-04-23 05:49 37.42503 -122.13598 5051 ft 214 kts 346°
2026-04-23 05:49 37.43940 -122.14086 4785 ft 213 kts 346°
2026-04-23 05:49 37.45374 -122.14577 4526 ft 213 kts 346°
2026-04-23 05:49 37.46812 -122.15054 4268 ft 213 kts 347°
2026-04-23 05:50 37.48246 -122.15521 4013 ft 213 kts 347°
2026-04-23 05:50 37.49680 -122.15993 3761 ft 213 kts 347°
2026-04-23 05:50 37.51113 -122.16467 3509 ft 213 kts 347°
2026-04-23 05:50 37.52528 -122.16941 3266 ft 212 kts 346°
2026-04-23 05:51 37.53797 -122.17881 2919 ft 217 kts 314°
2026-04-23 05:51 37.54560 -122.19500 2732 ft 215 kts 298°
2026-04-23 05:51 37.55246 -122.21176 2721 ft 217 kts 300°
2026-04-23 05:51 37.55958 -122.22847 2727 ft 217 kts 300°
2026-04-23 05:52 37.56664 -122.24530 2717 ft 218 kts 300°
2026-04-23 05:52 37.57369 -122.26215 2714 ft 217 kts 300°
2026-04-23 05:52 37.58057 -122.27860 2630 ft 197 kts 299°
2026-04-23 05:52 37.58637 -122.29277 2076 ft 169 kts 299°
2026-04-23 05:53 37.59151 -122.30504 1640 ft 148 kts 301°
2026-04-23 05:53 37.59621 -122.31577 1260 ft 136 kts 299°
2026-04-23 05:53 37.60046 -122.32596 894 ft 128 kts 298°
2026-04-23 05:53 37.60454 -122.33567 558 ft 123 kts 297°
2026-04-23 05:54 37.60843 -122.34506 312 ft 117 kts 297°
2026-04-23 05:54 37.61211 -122.35386 133 ft 109 kts 297°
2026-04-23 05:54 37.61560 -122.36207 23 ft 102 kts 297°
2026-04-23 05:54 37.61848 -122.36894 14 ft 63 kts 298°
2026-04-23 05:55 37.62005 -122.37268 13 ft 43 kts 298°
2026-04-23 05:55 37.62133 -122.37572 15 ft 36 kts 298°
2026-04-23 05:55 37.62244 -122.37822 17 ft 30 kts 300°
2026-04-23 05:55 37.62335 -122.38034 18 ft 25 kts 302°
2026-04-23 05:56 37.62431 -122.38126 16 ft 12 kts 341°
2026-04-23 05:56 37.62479 -122.38129 15 ft 6 kts 10°
2026-04-23 05:56 37.62529 -122.38150 15 ft 8 kts 305°
2026-04-23 05:56 37.62566 -122.38235 13 ft 13 kts 298°
2026-04-23 05:57 37.62610 -122.38340 12 ft 14 kts 297°
2026-04-23 05:57 37.62656 -122.38448 14 ft 11 kts 310°
2026-04-23 05:57 37.62715 -122.38441 14 ft 9 kts 38°
2026-04-23 05:57 37.62766 -122.38395 13 ft 8 kts
2026-04-23 05:58 37.62787 -122.38427 13 ft 4 kts 266°
2026-04-23 05:58 37.62783 -122.38441 13 ft 0 kts 251°